Tracking 30995 objects as of 5-Jul-2025
HD Live streaming from Space Station
objects crossing your sky now

QIANFAN-38

Track QIANFAN-38 now!
10-day predictions
QIANFAN-38 is classified as:


NORAD ID: 62239
Int'l Code: 2024-232C
Perigee: 1,066.2 km
Apogee: 1,085.6 km
Inclination: 89.0 °
Period: 106.6 minutes
Semi major axis: 7446 km
RCS: Unknown
Launch date: December 5, 2024
Source: People's Republic of China (PRC)
Launch site: Taiyaun Space Center, China (TSC)
Your satellite tracking list
SL-12 R/B(2)
Track 1 satellite(s)




NASA's NSSDC Master Catalog

Two Line Element Set (TLE):
1 62239U 24232C   25186.59239217  .00000083  00000-0  11093-3 0  9993
2 62239  88.9953  57.4497 0013080 303.9381  56.0526 13.50950249 77603
Source of the keplerian elements: AFSPC